TimeCST,TemperatureF,Dew PointF,Humidity,Sea Level PressureIn,VisibilityMPH,Wind Direction,Wind SpeedMPH,Gust SpeedMPH,PrecipitationIn,Events,Conditions,WindDirDegrees,DateUTC
12:52 AM,42.1,37.9,85,30.04,8.0,Calm,Calm,-,N/A,,Overcast,0,2012-11-06 06:52:00
3:52 AM,39.9,36.0,86,30.03,6.0,NNW,4.6,-,N/A,,Overcast,340,2012-11-06 09:52:00
4:52 AM,41.0,37.0,86,30.03,6.0,North,3.5,-,N/A,,Overcast,10,2012-11-06 10:52:00
5:52 AM,41.0,36.0,82,30.03,6.0,North,3.5,-,N/A,,Haze,360,2012-11-06 11:52:00
6:52 AM,41.0,37.0,86,30.03,4.0,Calm,Calm,-,N/A,,Overcast,0,2012-11-06 12:52:00
7:52 AM,42.1,37.0,82,30.06,4.0,West,5.8,-,N/A,,Haze,270,2012-11-06 13:52:00
8:52 AM,43.0,37.9,82,30.06,4.0,WNW,4.6,-,N/A,,Haze,290,2012-11-06 14:52:00
9:52 AM,44.1,39.0,82,30.06,4.0,NW,4.6,-,N/A,,Haze,310,2012-11-06 15:52:00
10:52 AM,46.0,39.9,79,30.05,5.0,WNW,4.6,-,N/A,,Haze,290,2012-11-06 16:52:00
11:52 AM,48.0,39.9,74,30.03,7.0,WNW,6.9,-,N/A,,Overcast,290,2012-11-06 17:52:00
12:52 PM,48.9,39.0,69,30.00,9.0,WNW,5.8,-,N/A,,Overcast,300,2012-11-06 18:52:00
1:52 PM,48.9,39.0,69,29.99,10.0,WNW,5.8,-,N/A,,Overcast,300,2012-11-06 19:52:00
2:10 PM,48.2,39.2,71,29.97,10.0,NW,4.6,-,N/A,,Overcast,310,2012-11-06 20:10:00
2:52 PM,48.9,39.0,69,29.97,10.0,WNW,3.5,-,N/A,,Overcast,290,2012-11-06 20:52:00
3:04 PM,48.2,39.2,71,29.96,10.0,Calm,Calm,-,N/A,,Overcast,0,2012-11-06 21:04:00
3:52 PM,48.9,39.0,69,29.96,10.0,Calm,Calm,-,N/A,,Overcast,0,2012-11-06 21:52:00
4:52 PM,48.0,39.9,74,29.96,10.0,Calm,Calm,-,N/A,,Overcast,0,2012-11-06 22:52:00
5:52 PM,48.0,41.0,77,29.96,10.0,Calm,Calm,-,N/A,,Overcast,0,2012-11-06 23:52:00
6:50 PM,46.4,42.8,87,29.97,6.0,Calm,Calm,-,0.01,Rain,Light Rain,0,2012-11-07 00:50:00
6:52 PM,46.9,43.0,86,29.98,6.0,Calm,Calm,-,0.01,Rain,Light Rain,0,2012-11-07 00:52:00
7:03 PM,46.4,42.8,87,29.97,7.0,Calm,Calm,-,0.01,Rain,Light Rain,0,2012-11-07 01:03:00
7:52 PM,46.0,43.0,89,29.98,4.0,Calm,Calm,-,0.01,Rain,Light Rain,0,2012-11-07 01:52:00
8:28 PM,44.6,44.6,100,29.97,3.0,Calm,Calm,-,0.00,Rain,Light Rain,0,2012-11-07 02:28:00
8:44 PM,44.6,44.6,100,29.97,2.5,Calm,Calm,-,0.01,Rain,Light Rain,0,2012-11-07 02:44:00
8:52 PM,45.0,44.1,97,29.97,2.5,Calm,Calm,-,0.01,Rain,Light Rain,0,2012-11-07 02:52:00
9:14 PM,44.6,44.6,100,29.96,1.8,Calm,Calm,-,0.01,Rain,Light Rain,0,2012-11-07 03:14:00
9:22 PM,44.6,44.6,100,29.96,1.5,Calm,Calm,-,0.02,Rain,Light Rain,0,2012-11-07 03:22:00
9:38 PM,46.4,44.6,93,29.95,1.0,Calm,Calm,-,0.03,Rain,Light Rain,0,2012-11-07 03:38:00
9:48 PM,46.4,44.6,93,29.95,1.0,Calm,Calm,-,0.03,,Mist,0,2012-11-07 03:48:00
9:52 PM,46.0,44.1,93,29.96,1.0,Calm,Calm,-,0.03,Rain,Light Rain,0,2012-11-07 03:52:00
10:11 PM,46.4,44.6,93,29.95,2.5,Calm,Calm,-,0.01,,Mist,0,2012-11-07 04:11:00
10:18 PM,46.4,44.6,93,29.95,2.5,Calm,Calm,-,0.01,,Overcast,0,2012-11-07 04:18:00
10:23 PM,46.4,44.6,93,29.95,2.5,Calm,Calm,-,0.01,,Overcast,0,2012-11-07 04:23:00
10:30 PM,46.4,44.6,93,29.94,3.0,Calm,Calm,-,0.01,,Overcast,0,2012-11-07 04:30:00
10:52 PM,46.0,44.1,93,29.94,4.0,Calm,Calm,-,0.01,,Overcast,0,2012-11-07 04:52:00
10:57 PM,46.4,44.6,93,29.94,4.0,Calm,Calm,-,N/A,,Overcast,0,2012-11-07 04:57:00
11:11 PM,46.4,44.6,93,29.94,3.0,Calm,Calm,-,0.00,Rain,Light Rain,0,2012-11-07 05:11:00
11:26 PM,46.4,44.6,93,29.93,2.5,West,3.5,-,0.02,Rain,Light Rain,280,2012-11-07 05:26:00
11:34 PM,46.4,44.6,93,29.93,3.0,WNW,3.5,-,0.02,Rain,Light Rain,300,2012-11-07 05:34:00
11:52 PM,46.0,44.1,93,29.93,5.0,West,3.5,-,0.02,,Overcast,280,2012-11-07 05:52:00